Time,TemperatureF,DewpointF,PressureIn,WindDirection,WindDirectionDegrees,WindSpeedMPH,WindSpeedGustMPH,Humidity,HourlyPrecipIn,Conditions,Clouds,dailyrainin,SoftwareType,DateUTC
2013-05-24 00:02:00,51.0,39.0,30.24,SE,129,12.0,-999.0,62,-99.99,,,-99.99,,2013-05-24 05:02:00,
2013-05-24 00:12:00,51.0,38.0,30.24,SE,129,13.0,-999.0,61,-99.99,,,-99.99,,2013-05-24 05:12:00,
2013-05-24 00:22:00,50.0,37.0,30.24,SE,132,13.0,-999.0,61,-99.99,,,-99.99,,2013-05-24 05:22:00,
2013-05-24 00:32:00,51.0,37.0,30.24,SE,125,11.0,-999.0,59,-99.99,,,-99.99,,2013-05-24 05:32:00,
2013-05-24 00:42:00,50.0,36.0,30.24,SE,130,14.0,-999.0,60,-99.99,,,-99.99,,2013-05-24 05:42:00,
2013-05-24 00:52:00,49.0,36.0,30.24,SE,131,9.0,-999.0,60,-99.99,,,-99.99,,2013-05-24 05:52:00,
2013-05-24 01:02:00,49.0,36.0,30.24,SE,126,11.0,-999.0,61,-99.99,,,-99.99,,2013-05-24 06:02:00,
2013-05-24 01:12:00,49.0,37.0,30.24,SE,127,11.0,-999.0,63,-99.99,,,-99.99,,2013-05-24 06:12:00,
2013-05-24 01:21:00,49.0,36.0,30.24,SE,129,12.0,-999.0,61,-99.99,,,-99.99,,2013-05-24 06:21:00,
2013-05-24 01:32:00,48.0,36.0,30.24,ESE,123,9.0,-999.0,63,-99.99,,,-99.99,,2013-05-24 06:32:00,
2013-05-24 01:42:00,48.0,36.0,30.24,SE,128,13.0,-999.0,64,-99.99,,,-99.99,,2013-05-24 06:42:00,
2013-05-24 01:52:00,47.0,37.0,30.24,SE,133,11.0,-999.0,67,-99.99,,,-99.99,,2013-05-24 06:52:00,
2013-05-24 02:01:00,46.0,37.0,30.24,SE,126,11.0,-999.0,69,-99.99,,,-99.99,,2013-05-24 07:01:00,
2013-05-24 02:11:00,46.0,37.0,30.24,SE,133,10.0,-999.0,70,-99.99,,,-99.99,,2013-05-24 07:11:00,
2013-05-24 02:22:00,46.0,37.0,30.24,SE,139,8.0,-999.0,72,-99.99,,,-99.99,,2013-05-24 07:22:00,
2013-05-24 02:32:00,46.0,38.0,30.24,SSE,156,11.0,-999.0,74,-99.99,,,-99.99,,2013-05-24 07:32:00,
2013-05-24 02:42:00,45.0,38.0,30.24,SE,139,12.0,-999.0,76,-99.99,,,-99.99,,2013-05-24 07:42:00,
2013-05-24 02:52:00,45.0,38.0,30.24,SE,139,10.0,-999.0,77,-99.99,,,-99.99,,2013-05-24 07:52:00,
2013-05-24 03:02:00,45.0,39.0,30.24,SE,136,11.0,-999.0,79,-99.99,,,-99.99,,2013-05-24 08:02:00,
2013-05-24 03:11:00,44.0,39.0,30.24,SE,140,10.0,-999.0,82,-99.99,,,-99.99,,2013-05-24 08:11:00,
2013-05-24 03:22:00,43.0,39.0,30.23,SE,139,8.0,-999.0,85,-99.99,,,-99.99,,2013-05-24 08:22:00,
2013-05-24 03:33:00,44.0,40.0,30.23,SE,128,8.0,-999.0,86,-99.99,,,-99.99,,2013-05-24 08:33:00,
2013-05-24 03:42:00,43.0,39.0,30.23,SE,138,10.0,-999.0,87,-99.99,,,-99.99,,2013-05-24 08:42:00,
2013-05-24 03:52:00,43.0,40.0,30.22,SE,129,10.0,-999.0,88,-99.99,,,-99.99,,2013-05-24 08:52:00,
2013-05-24 04:02:00,43.0,40.0,30.22,ESE,112,8.0,-999.0,88,-99.99,,,-99.99,,2013-05-24 09:02:00,
2013-05-24 04:11:00,42.0,39.0,30.22,SE,141,10.0,-999.0,89,-99.99,,,-99.99,,2013-05-24 09:11:00,
2013-05-24 04:21:00,42.0,39.0,30.22,SE,139,9.0,-999.0,91,-99.99,,,-99.99,,2013-05-24 09:21:00,
2013-05-24 04:32:00,42.0,39.0,30.21,SE,133,9.0,-999.0,91,-99.99,,,-99.99,,2013-05-24 09:32:00,
2013-05-24 04:42:00,41.0,39.0,30.22,SE,138,9.0,-999.0,93,-99.99,,,-99.99,,2013-05-24 09:42:00,
2013-05-24 04:52:00,41.0,40.0,30.22,SE,141,8.0,-999.0,94,-99.99,,,-99.99,,2013-05-24 09:52:00,
2013-05-24 05:03:00,40.0,39.0,30.22,SE,144,7.0,-999.0,95,-99.99,,,-99.99,,2013-05-24 10:03:00,
2013-05-24 05:12:00,41.0,40.0,30.21,SE,136,11.0,-999.0,94,-99.99,,,-99.99,,2013-05-24 10:12:00,
2013-05-24 05:22:00,42.0,39.0,30.22,SE,137,13.0,-999.0,90,-99.99,,,-99.99,,2013-05-24 10:22:00,
2013-05-24 05:32:00,42.0,39.0,30.21,SE,133,12.0,-999.0,91,-99.99,,,-99.99,,2013-05-24 10:32:00,
2013-05-24 05:42:00,42.0,39.0,30.22,SE,134,13.0,-999.0,86,-99.99,,,-99.99,,2013-05-24 10:42:00,
2013-05-24 05:52:00,42.0,38.0,30.21,SE,129,13.0,-999.0,85,-99.99,,,-99.99,,2013-05-24 10:52:00,
2013-05-24 06:02:00,42.0,38.0,30.21,SE,125,12.0,-999.0,87,-99.99,,,-99.99,,2013-05-24 11:02:00,
2013-05-24 06:12:00,42.0,38.0,30.21,SE,134,14.0,-999.0,85,-99.99,,,-99.99,,2013-05-24 11:12:00,
2013-05-24 06:22:00,42.0,38.0,30.21,SE,139,13.0,-999.0,83,-99.99,,,-99.99,,2013-05-24 11:22:00,
2013-05-24 06:32:00,43.0,38.0,30.21,SE,141,12.0,-999.0,82,-99.99,,,-99.99,,2013-05-24 11:32:00,
2013-05-24 06:42:00,44.0,38.0,30.21,SE,137,12.0,-999.0,81,-99.99,,,-99.99,,2013-05-24 11:42:00,
2013-05-24 06:51:00,44.0,38.0,30.21,SE,136,15.0,-999.0,79,-99.99,,,-99.99,,2013-05-24 11:51:00,
2013-05-24 07:02:00,45.0,38.0,30.21,SSE,147,16.0,-999.0,76,-99.99,,,-99.99,,2013-05-24 12:02:00,
2013-05-24 07:11:00,46.0,39.0,30.21,SE,146,14.0,-999.0,75,-99.99,,,-99.99,,2013-05-24 12:11:00,
2013-05-24 07:21:00,47.0,39.0,30.21,SSE,147,18.0,-999.0,74,-99.99,,,-99.99,,2013-05-24 12:21:00,
2013-05-24 07:32:00,46.0,39.0,30.21,SE,142,22.0,-999.0,76,-99.99,,,-99.99,,2013-05-24 12:32:00,
2013-05-24 07:42:00,46.0,39.0,30.21,SE,144,20.0,-999.0,76,-99.99,,,-99.99,,2013-05-24 12:42:00,
2013-05-24 07:52:00,47.0,39.0,30.21,SSE,149,17.0,-999.0,75,-99.99,,,-99.99,,2013-05-24 12:52:00,
2013-05-24 08:02:00,47.0,39.0,30.21,SE,141,19.0,-999.0,75,-99.99,,,-99.99,,2013-05-24 13:02:00,
2013-05-24 08:11:00,48.0,40.0,30.21,SE,146,14.0,-999.0,74,-99.99,,,-99.99,,2013-05-24 13:11:00,
2013-05-24 08:21:00,49.0,38.0,30.22,SSE,147,17.0,-999.0,66,-99.99,,,-99.99,,2013-05-24 13:21:00,
2013-05-24 08:32:00,49.0,37.0,30.21,SE,140,22.0,-999.0,63,-99.99,,,-99.99,,2013-05-24 13:32:00,
2013-05-24 08:42:00,50.0,36.0,30.20,SSE,151,30.0,-999.0,59,-99.99,,,-99.99,,2013-05-24 13:42:00,
2013-05-24 08:52:00,50.0,37.0,30.20,SE,145,25.0,-999.0,60,-99.99,,,-99.99,,2013-05-24 13:52:00,
2013-05-24 09:01:00,50.0,36.0,30.20,SE,143,26.0,-999.0,58,-99.99,,,-99.99,,2013-05-24 14:01:00,
2013-05-24 09:11:00,51.0,36.0,30.21,SSE,156,23.0,-999.0,56,-99.99,,,-99.99,,2013-05-24 14:11:00,
2013-05-24 09:21:00,51.0,35.0,30.20,SE,140,25.0,-999.0,53,-99.99,,,-99.99,,2013-05-24 14:21:00,
2013-05-24 09:32:00,52.0,35.0,30.20,SSE,154,26.0,-999.0,51,-99.99,,,-99.99,,2013-05-24 14:32:00,
2013-05-24 09:42:00,54.0,37.0,30.20,SE,143,22.0,-999.0,52,-99.99,,,-99.99,,2013-05-24 14:42:00,
2013-05-24 09:52:00,54.0,35.0,30.20,SE,139,26.0,-999.0,50,-99.99,,,-99.99,,2013-05-24 14:52:00,
2013-05-24 10:02:00,54.0,35.0,30.20,SE,139,26.0,-999.0,50,-99.99,,,-99.99,,2013-05-24 15:02:00,
2013-05-24 10:11:00,55.0,37.0,30.19,SE,145,27.0,-999.0,52,-99.99,,,-99.99,,2013-05-24 15:11:00,
2013-05-24 10:21:00,55.0,36.0,30.19,SSE,147,23.0,-999.0,50,-99.99,,,-99.99,,2013-05-24 15:21:00,
2013-05-24 10:32:00,56.0,36.0,30.19,SE,136,26.0,-999.0,47,-99.99,,,-99.99,,2013-05-24 15:32:00,
2013-05-24 10:43:00,56.0,37.0,30.18,SE,135,29.0,-999.0,49,-99.99,,,-99.99,,2013-05-24 15:43:00,
2013-05-24 10:52:00,56.0,37.0,30.18,SE,144,26.0,-999.0,48,-99.99,,,-99.99,,2013-05-24 15:52:00,
2013-05-24 11:03:00,56.0,37.0,30.18,SSE,148,22.0,-999.0,48,-99.99,,,-99.99,,2013-05-24 16:03:00,
2013-05-24 11:12:00,58.0,36.0,30.17,SE,131,28.0,-999.0,44,-99.99,,,-99.99,,2013-05-24 16:12:00,
2013-05-24 11:22:00,58.0,37.0,30.17,SSE,148,27.0,-999.0,44,-99.99,,,-99.99,,2013-05-24 16:22:00,
2013-05-24 11:32:00,59.0,37.0,30.16,SE,140,32.0,-999.0,44,-99.99,,,-99.99,,2013-05-24 16:32:00,
2013-05-24 11:42:00,58.0,37.0,30.15,SE,135,32.0,-999.0,44,-99.99,,,-99.99,,2013-05-24 16:42:00,
2013-05-24 11:52:00,59.0,38.0,30.15,SE,135,31.0,-999.0,45,-99.99,,,-99.99,,2013-05-24 16:52:00,
2013-05-24 12:02:00,58.0,38.0,30.16,SE,130,26.0,-999.0,46,-99.99,,,-99.99,,2013-05-24 17:02:00,
2013-05-24 12:12:00,58.0,37.0,30.16,SE,145,28.0,-999.0,47,-99.99,,,-99.99,,2013-05-24 17:12:00,
2013-05-24 12:22:00,57.0,38.0,30.16,SE,138,25.0,-999.0,48,-99.99,,,-99.99,,2013-05-24 17:22:00,
2013-05-24 12:32:00,58.0,38.0,30.15,SE,133,27.0,-999.0,48,-99.99,,,-99.99,,2013-05-24 17:32:00,
2013-05-24 12:42:00,58.0,39.0,30.15,SE,128,24.0,-999.0,48,-99.99,,,-99.99,,2013-05-24 17:42:00,
2013-05-24 12:52:00,59.0,39.0,30.14,SE,132,26.0,-999.0,47,-99.99,,,-99.99,,2013-05-24 17:52:00,
2013-05-24 13:01:00,61.0,39.0,30.13,SE,135,34.0,-999.0,44,-99.99,,,-99.99,,2013-05-24 18:01:00,
2013-05-24 13:12:00,62.0,39.0,30.13,SE,132,26.0,-999.0,44,-99.99,,,-99.99,,2013-05-24 18:12:00,
2013-05-24 13:21:00,61.0,39.0,30.12,SE,124,25.0,-999.0,43,-99.99,,,-99.99,,2013-05-24 18:21:00,
2013-05-24 13:32:00,61.0,40.0,30.12,SE,127,25.0,-999.0,46,-99.99,,,-99.99,,2013-05-24 18:32:00,
2013-05-24 13:42:00,60.0,39.0,30.12,SE,134,25.0,-999.0,46,-99.99,,,-99.99,,2013-05-24 18:42:00,
2013-05-24 13:51:00,60.0,39.0,30.13,SE,133,19.0,-999.0,47,-99.99,,,-99.99,,2013-05-24 18:51:00,
2013-05-24 14:01:00,60.0,39.0,30.13,SE,138,22.0,-999.0,47,-99.99,,,-99.99,,2013-05-24 19:01:00,
2013-05-24 14:11:00,59.0,42.0,30.13,SE,140,15.0,-999.0,52,-99.99,,,-99.99,,2013-05-24 19:11:00,
2013-05-24 14:21:00,57.0,44.0,30.14,ESE,123,11.0,-999.0,62,-99.99,,,-99.99,,2013-05-24 19:21:00,
2013-05-24 14:32:00,57.0,45.0,30.15,ESE,122,9.0,-999.0,63,-99.99,,,-99.99,,2013-05-24 19:32:00,
2013-05-24 14:41:00,57.0,46.0,30.16,ESE,116,6.0,-999.0,66,-99.99,,,-99.99,,2013-05-24 19:41:00,
2013-05-24 14:52:00,56.0,46.0,30.14,ESE,108,10.0,-999.0,69,-99.99,,,-99.99,,2013-05-24 19:52:00,
2013-05-24 15:02:00,56.0,47.0,30.14,SE,128,12.0,-999.0,73,-99.99,,,-99.99,,2013-05-24 20:02:00,
2013-05-24 15:11:00,56.0,48.0,30.17,SE,128,6.0,-999.0,74,-99.99,,,-99.99,,2013-05-24 20:11:00,
2013-05-24 15:21:00,55.0,47.0,30.14,East,85,12.0,-999.0,74,-99.99,,,-99.99,,2013-05-24 20:21:00,
2013-05-24 15:32:00,56.0,47.0,30.12,East,87,11.0,-999.0,71,-99.99,,,-99.99,,2013-05-24 20:32:00,
2013-05-24 15:42:00,55.0,49.0,30.11,SE,132,19.0,-999.0,79,-99.99,,,-99.99,,2013-05-24 20:42:00,
2013-05-24 15:52:00,55.0,48.0,30.13,SE,130,15.0,-999.0,78,-99.99,,,-99.99,,2013-05-24 20:52:00,
2013-05-24 16:01:00,55.0,47.0,30.11,ESE,120,22.0,-999.0,75,-99.99,,,-99.99,,2013-05-24 21:01:00,
2013-05-24 16:11:00,55.0,47.0,30.13,ESE,122,21.0,-999.0,76,-99.99,,,-99.99,,2013-05-24 21:11:00,
2013-05-24 16:21:00,54.0,47.0,30.11,ESE,120,18.0,-999.0,75,-99.99,,,-99.99,,2013-05-24 21:21:00,
2013-05-24 16:32:00,54.0,49.0,30.11,ESE,116,14.0,-999.0,82,-99.99,,,-99.99,,2013-05-24 21:32:00,
2013-05-24 16:42:00,54.0,49.0,30.10,ESE,120,13.0,-999.0,84,-99.99,,,-99.99,,2013-05-24 21:42:00,
2013-05-24 16:53:00,53.0,49.0,30.10,East,93,15.0,-999.0,86,-99.99,,,-99.99,,2013-05-24 21:53:00,
2013-05-24 17:02:00,53.0,50.0,30.09,East,99,14.0,-999.0,87,-99.99,,,-99.99,,2013-05-24 22:02:00,
2013-05-24 17:12:00,54.0,49.0,30.08,ESE,110,17.0,-999.0,83,-99.99,,,-99.99,,2013-05-24 22:12:00,
2013-05-24 17:22:00,54.0,48.0,30.07,ESE,111,11.0,-999.0,82,-99.99,,,-99.99,,2013-05-24 22:22:00,
2013-05-24 17:33:00,54.0,48.0,30.08,ESE,115,14.0,-999.0,82,-99.99,,,-99.99,,2013-05-24 22:33:00,
2013-05-24 17:42:00,54.0,48.0,30.08,ESE,114,14.0,-999.0,80,-99.99,,,-99.99,,2013-05-24 22:42:00,
2013-05-24 17:52:00,54.0,48.0,30.08,ESE,113,14.0,-999.0,79,-99.99,,,-99.99,,2013-05-24 22:52:00,
2013-05-24 18:02:00,54.0,48.0,30.07,SE,134,13.0,-999.0,79,-99.99,,,-99.99,,2013-05-24 23:02:00,
2013-05-24 18:11:00,54.0,47.0,30.07,ESE,112,16.0,-999.0,78,-99.99,,,-99.99,,2013-05-24 23:11:00,
2013-05-24 18:22:00,54.0,48.0,30.08,ESE,120,14.0,-999.0,81,-99.99,,,-99.99,,2013-05-24 23:22:00,
2013-05-24 18:32:00,54.0,49.0,30.08,SE,129,13.0,-999.0,82,-99.99,,,-99.99,,2013-05-24 23:32:00,
2013-05-24 18:42:00,54.0,49.0,30.08,ESE,119,14.0,-999.0,83,-99.99,,,-99.99,,2013-05-24 23:42:00,
2013-05-24 18:52:00,54.0,49.0,30.07,SE,131,10.0,-999.0,85,-99.99,,,-99.99,,2013-05-24 23:52:00,
2013-05-24 19:01:00,54.0,50.0,30.07,SE,133,15.0,-999.0,88,-99.99,,,-99.99,,2013-05-25 00:01:00,
2013-05-24 19:11:00,54.0,51.0,30.07,SE,137,24.0,-999.0,89,-99.99,,,-99.99,,2013-05-25 00:11:00,
2013-05-24 19:21:00,54.0,50.0,30.07,SE,140,22.0,-999.0,85,-99.99,,,-99.99,,2013-05-25 00:21:00,
2013-05-24 19:32:00,55.0,49.0,30.07,SE,139,21.0,-999.0,82,-99.99,,,-99.99,,2013-05-25 00:32:00,
2013-05-24 19:42:00,54.0,50.0,30.07,SE,127,19.0,-999.0,88,-99.99,,,-99.99,,2013-05-25 00:42:00,
2013-05-24 19:51:00,54.0,50.0,30.07,SE,127,19.0,-999.0,88,-99.99,,,-99.99,,2013-05-25 00:51:00,
2013-05-24 20:01:00,54.0,51.0,30.06,ESE,116,15.0,-999.0,92,-99.99,,,-99.99,,2013-05-25 01:01:00,
2013-05-24 20:11:00,53.0,51.0,30.06,SE,133,18.0,-999.0,92,-99.99,,,-99.99,,2013-05-25 01:11:00,
2013-05-24 20:22:00,53.0,51.0,30.06,ESE,111,15.0,-999.0,91,-99.99,,,-99.99,,2013-05-25 01:22:00,
2013-05-24 20:32:00,54.0,51.0,30.05,ESE,113,16.0,-999.0,90,-99.99,,,-99.99,,2013-05-25 01:32:00,
2013-05-24 20:42:00,54.0,50.0,30.05,ESE,107,15.0,-999.0,88,-99.99,,,-99.99,,2013-05-25 01:42:00,
2013-05-24 20:52:00,54.0,50.0,30.05,ESE,108,17.0,-999.0,88,-99.99,,,-99.99,,2013-05-25 01:52:00,
2013-05-24 21:02:00,54.0,50.0,30.05,ESE,119,17.0,-999.0,89,-99.99,,,-99.99,,2013-05-25 02:02:00,
2013-05-24 21:11:00,54.0,50.0,30.04,ESE,119,20.0,-999.0,87,-99.99,,,-99.99,,2013-05-25 02:11:00,
2013-05-24 21:21:00,54.0,50.0,30.04,SE,126,14.0,-999.0,85,-99.99,,,-99.99,,2013-05-25 02:21:00,
2013-05-24 21:32:00,54.0,49.0,30.04,ESE,103,15.0,-999.0,85,-99.99,,,-99.99,,2013-05-25 02:32:00,
2013-05-24 21:42:00,54.0,49.0,30.04,ESE,119,15.0,-999.0,85,-99.99,,,-99.99,,2013-05-25 02:42:00,
2013-05-24 21:51:00,54.0,50.0,30.05,ESE,122,19.0,-999.0,86,-99.99,,,-99.99,,2013-05-25 02:51:00,
2013-05-24 22:02:00,54.0,50.0,30.05,ESE,118,16.0,-999.0,86,-99.99,,,-99.99,,2013-05-25 03:02:00,
2013-05-24 22:11:00,54.0,49.0,30.06,ESE,120,15.0,-999.0,85,-99.99,,,-99.99,,2013-05-25 03:11:00,
2013-05-24 22:21:00,54.0,49.0,30.06,ESE,122,19.0,-999.0,85,-99.99,,,-99.99,,2013-05-25 03:21:00,
2013-05-24 22:32:00,53.0,49.0,30.05,ESE,109,21.0,-999.0,85,-99.99,,,-99.99,,2013-05-25 03:32:00,
2013-05-24 22:43:00,53.0,49.0,30.06,ESE,119,17.0,-999.0,86,-99.99,,,-99.99,,2013-05-25 03:43:00,
2013-05-24 22:53:00,53.0,49.0,30.06,ESE,119,17.0,-999.0,86,-99.99,,,-99.99,,2013-05-25 03:53:00,
2013-05-24 23:02:00,53.0,49.0,30.06,ESE,123,20.0,-999.0,87,-99.99,,,-99.99,,2013-05-25 04:02:00,
2013-05-24 23:13:00,53.0,50.0,30.05,ESE,119,17.0,-999.0,88,-99.99,,,-99.99,,2013-05-25 04:13:00,
2013-05-24 23:23:00,54.0,50.0,30.05,ESE,121,19.0,-999.0,87,-99.99,,,-99.99,,2013-05-25 04:23:00,
2013-05-24 23:33:00,54.0,50.0,30.06,SE,130,18.0,-999.0,87,-99.99,,,-99.99,,2013-05-25 04:33:00,
2013-05-24 23:43:00,53.0,50.0,30.06,SE,127,17.0,-999.0,88,-99.99,,,-99.99,,2013-05-25 04:43:00,
2013-05-24 23:52:00,53.0,51.0,30.05,ESE,115,21.0,-999.0,90,-99.99,,,-99.99,,2013-05-25 04:52:00,